Other Public Products
Issued by NWS Charleston, SC

Current Version | Previous Version | Text Only | Print | Product List | Glossary Off
Versions: 1 2 3 4 5 6 7 8 9 10 11 12 13 14 15 16 17 18 19 20 21 22 23 24 25 26 27 28 29 30 31 32 33 34 35 36 37 38 39 40 41 42 43 44 45 46 47 48 49 50
705 FPUS82 KCHS 281211 OPUCHS TEST...KCHS/KSAV Gateway Observations...TEST National Weather Service Charleston SC 800 AM EDT TUE MAR 28 2017 NOTE: "fair" indicates few or no clouds below 12,000 feet with no significant weather and/or obstructions to visibility. SCZ050-WAZ558-NCZ071-TXZ119-213-PAZ071-DCZ001-FLZ074-172-MI076- NYZ176-178-MAZ016-IL014-TNZ027-NJZ106-GAZ044-MD014-281300- ...Gateway Observations for Charleston International... CITY SKY/WX TMP DP RH WIND PRES REMARKS Chas Airport PTCLDY 66 60 81 SW8 30.01R 6HR MIN TEMP: 61; 6HR MAX TEMP: 66; Seattle CLOUDY 45 41 86 S9 30.21F 6HR MIN TEMP: 44; 6HR MAX TEMP: 46; 6HR PCP: 0.07; Charlotte LGT RAIN 59 57 93 S3 29.95R 6HR MIN TEMP: 59; 6HR MAX TEMP: 67; 6HR PCP: 0.35; Dallas DFW CLOUDY 63 56 78 E9 29.85S 6HR MIN TEMP: 59; 6HR MAX TEMP: 64; Dallas Love CLOUDY 64 56 75 E8 29.86R 6HR MIN TEMP: 62; 6HR MAX TEMP: 65; Philladelphia TSTM 50 50 100 N5 29.93R VSB 3/4 6HR MIN TEMP: 50; 6HR MAX TEMP: 52; Wash National PTSUNNY 63 58 83 S7 29.86R 6HR MIN TEMP: 58; 6HR MAX TEMP: 64; 6HR PCP: TRACE; Baltimore CLOUDY 55 55 100 E3 29.86S 6HR MIN TEMP: 52; 6HR MAX TEMP: 55; 6HR PCP: 0.02; Miami PTCLDY 67 62 83 CALM 30.04R 6HR MIN TEMP: 67; 6HR MAX TEMP: 70; Detroit CLOUDY 43 39 86 N8 29.99R 6HR MIN TEMP: 43; 6HR MAX TEMP: 53; Newark CLOUDY 45 44 97 NE7 29.96R FOG 6HR MIN TEMP: 44; 6HR MAX TEMP: 49; 6HR PCP: 0.20; Laguardia CLOUDY 42 39 89 NE10 29.96R FOG 6HR MIN TEMP: 42; 6HR MAX TEMP: 44; 6HR PCP: 0.19; J F K CLOUDY 45 44 97 E9 29.97S 6HR MIN TEMP: 44; 6HR MAX TEMP: 48; 6HR PCP: 0.13; Boston Logan CLOUDY 36 35 96 E6 30.04F WCI 31 6HR MIN TEMP: 36; 6HR MAX TEMP: 37; Ft. Lauderdale PTCLDY 67 62 84 NW5 30.03R 6HR MIN TEMP: 66; 6HR MAX TEMP: 72; Chicago O`Hare CLOUDY 41 35 79 NE13 30.06R 6HR MIN TEMP: 41; 6HR MAX TEMP: 42; Chicago Midway CLOUDY 40 36 86 N18G24 30.07R WCI 31 6HR MIN TEMP: 40; 6HR MAX TEMP: 42; Houston Bush MOCLDY 68 67 96 SE6 29.87R FOG 6HR MIN TEMP: 68; 6HR MAX TEMP: 71; Houston Hobby PTCLDY 72 70 93 SE5 29.85S 6HR MIN TEMP: 71; 6HR MAX TEMP: 73; Nashville CLOUDY 56 54 93 NW7 29.97R 6HR MIN TEMP: 56; 6HR MAX TEMP: 59; Atlanta LGT RAIN 62 62 100 SW9 29.98R 6HR MIN TEMP: 62; 6HR MAX TEMP: 65; 6HR PCP: 0.04; $$ GAZ044-118-TXZ119-213-NCZ071-DCZ001-MDZ014-506-PAZ021-071-NJZ106- NYZ176-178-MAZ106-OHZ011-021-055-MIZ076-KYZ091-ILZ014-INZ047- MNZ060-ONZ431-281300- ...Gateway Observations for Savannah International... CITY SKY/WX TMP DP RH WIND PRES REMARKS Savannah Arpt PTCLDY 65 58 78 SW8 30.02R 6HR MIN TEMP: 64; 6HR MAX TEMP: 67; Atlanta LGT RAIN 62 62 100 SW9 29.98R 6HR MIN TEMP: 62; 6HR MAX TEMP: 65; 6HR PCP: 0.04; Charlotte LGT RAIN 59 57 93 S3 29.95R 6HR MIN TEMP: 59; 6HR MAX TEMP: 67; 6HR PCP: 0.35; Dallas DFW CLOUDY 63 56 78 E9 29.85S 6HR MIN TEMP: 59; 6HR MAX TEMP: 64; Houston Bush MOCLDY 68 67 96 SE6 29.87R FOG 6HR MIN TEMP: 68; 6HR MAX TEMP: 71; Wash National PTSUNNY 63 58 83 S7 29.86R 6HR MIN TEMP: 58; 6HR MAX TEMP: 64; 6HR PCP: TRACE; Wash Dulles CLOUDY 56 55 97 NW3 29.85S FOG 6HR MIN TEMP: 53; 6HR MAX TEMP: 60; 6HR PCP: 0.02; Baltimore CLOUDY 55 55 100 E3 29.86S 6HR MIN TEMP: 52; 6HR MAX TEMP: 55; 6HR PCP: 0.02; Philadelphia TSTM 50 50 100 N5 29.93R VSB 3/4 6HR MIN TEMP: 50; 6HR MAX TEMP: 52; Newark CLOUDY 45 44 97 NE7 29.96R FOG 6HR MIN TEMP: 44; 6HR MAX TEMP: 49; 6HR PCP: 0.20; Laguardia CLOUDY 42 39 89 NE10 29.96R FOG 6HR MIN TEMP: 42; 6HR MAX TEMP: 44; 6HR PCP: 0.19; J F K CLOUDY 45 44 97 E9 29.97S 6HR MIN TEMP: 44; 6HR MAX TEMP: 48; 6HR PCP: 0.13; Boston CLOUDY 36 35 96 E6 30.04F WCI 31 6HR MIN TEMP: 36; 6HR MAX TEMP: 37; Pittsburg LGT RAIN 54 54 100 S3 29.86S FOG 6HR MIN TEMP: 54; 6HR MAX TEMP: 58; 6HR PCP: 0.06; Akron LGT RAIN 52 49 89 NE8 29.87R FOG 6HR MIN TEMP: 52; 6HR MAX TEMP: 53; 6HR PCP: 0.36; Cleveland LGT RAIN 45 41 86 N12 29.95R VSB 1 6HR MIN TEMP: 45; 6HR MAX TEMP: 54; 6HR PCP: 0.05; Cincinnati CLOUDY 56 55 97 W9 29.90R FOG 6HR MIN TEMP: 55; 6HR MAX TEMP: 56; 6HR PCP: 0.03; Columbus CLOUDY 54 54 100 SW5 29.87R FOG Detroit CLOUDY 43 39 86 N8 29.99R 6HR MIN TEMP: 43; 6HR MAX TEMP: 53; Chicago O`Hare CLOUDY 41 35 79 NE13 30.06R 6HR MIN TEMP: 41; 6HR MAX TEMP: 42; Minneapolis PTCLDY 36 33 89 CALM 30.10R 6HR MIN TEMP: 35; 6HR MAX TEMP: 43; Indianapolis CLOUDY 50 48 93 N8 29.96R FOG 6HR MIN TEMP: 50; 6HR MAX TEMP: 55; 6HR PCP: 0.01; Toronto Canada MOCLDY 41 37 87 N21 29.94R $$

USA.gov is the U.S. government's official web portal to all federal, state and local government web resources and services.